Wetbulb
60.15 60.58 60.92 61.32 61.31 60.92 59.11 58.55 57.49 56.51 56.44 56.15 55.97 56.17 56.38 55.97 55.33 62.12 58.14 56.03 58.58 61.20 59.91 58.06 57.27 55.71 56.32 56.33 56.67 56.10 49.43 47.74 49.26 50.05 51.12 55.89 54.25 58.23 61.50 61.59 63.19 64.07 64.77 69.11 69.69
60.47 60.65 61.10 61.27 60.54 60.47 59.82 57.36 56.22 55.88 55.99 55.46 55.36 55.62 55.73 55.13 57.88 58.37 56.28 60.03 60.29 60.90 56.62 54.28 54.12 54.67 53.22 54.39 55.14 52.20 49.43 49.52 52.50 52.89 52.14 53.98 54.71 56.14 57.65 59.75 60.44 61.99 66.68 69.73 68.88
60.70 60.58 60.92 61.12 60.36 59.77 59.55 56.59 54.91 54.57 55.32 55.32 55.26 55.32 54.78 55.24 56.40 57.16 59.00 61.35 60.30 59.44 58.07 56.09 55.08 53.97 51.67 53.68 53.73 52.57 48.88 52.10 52.04 51.90 52.80 52.97 53.53 56.32 56.28 55.63 59.04 60.58 64.70 66.86 68.31
60.21 60.06 60.02 60.68 60.83 59.88 59.43 56.48 54.74 53.99 53.82 54.73 55.34 55.24 55.08 57.99 48.38 58.49 60.68 60.89 60.34 58.78 57.52 55.92 53.78 51.77 50.71 50.25 53.06 49.37 51.90 52.16 52.38 52.24 51.83 51.47 54.32 54.22 56.06 56.83 60.00 61.25 65.31 66.34 66.90
59.11 59.23 59.59 60.18 60.60 59.95 58.85 56.36 54.57 53.87 53.96 53.70 54.36 55.16 57.16 55.18 55.12 58.59 58.91 59.35 57.46 57.88 56.57 54.28 51.82 51.81 49.37 50.52 51.60 50.37 51.20 52.29 52.70 52.37 52.46 52.89 51.90 52.84 54.35 58.26 59.44 61.10 64.79 65.26 66.07
58.29 58.29 58.54 59.09 59.82 59.61 58.50 55.74 54.45 54.00 53.83 53.28 53.85 53.38 56.95 50.58 60.62 60.28 58.72 58.66 59.63 58.27 56.79 54.84 52.94 52.80 50.27 50.24 49.88 52.10 51.60 51.57 52.16 52.00 52.53 50.93 51.28 52.34 53.81 56.87 57.27 58.11 62.09 64.32 65.62
58.12 57.98 57.79 58.22 58.98 59.09 58.03 55.51 53.93 53.36 53.28 52.96 53.08 54.63 54.61 53.71 61.31 62.60 60.19 58.65 60.06 58.99 56.20 56.55 54.68 51.55 52.51 50.50 52.27 51.23 47.88 49.79 50.59 51.38 50.84 52.03 49.06 49.26 53.69 55.62 55.59 57.92 60.33 62.55 64.56
58.73 58.01 57.29 57.41 57.89 58.06 56.15 53.87 52.90 53.04 53.09 53.02 52.89 54.79 51.04 60.16 62.31 60.67 61.05 59.46 61.10 59.97 57.80 57.87 55.69 52.94 50.99 53.16 51.27 48.61 49.44 45.98 50.75 49.68 50.64 50.37 45.52 50.77 53.78 53.60 53.91 56.03 57.46 58.94 62.29
58.64 58.22 57.20 56.70 56.80 55.86 53.24 52.25 52.31 52.63 52.90 52.75 53.19 54.50 51.29 59.85 56.73 59.00 59.89 57.06 55.50 56.05 56.91 55.00 53.71 52.15 53.05 49.12 48.27 49.64 45.02 47.56 48.64 50.52 49.39 48.64 46.14 50.81 53.32 53.18 52.77 54.31 55.89 57.28 60.02
58.16 57.90 57.22 56.46 54.34 51.86 51.15 51.17 52.50 51.44 52.32 54.10 54.67 50.91 54.54 55.03 59.47 56.96 57.17 56.36 53.63 53.40 51.77 50.62 51.18 49.96 50.68 48.90 43.46 46.73 47.29 48.47 47.36 50.41 48.79 47.65 47.48 50.23 51.50 52.04 52.97 54.04 54.73 56.02 58.45
57.72 57.54 54.71 52.58 51.53 51.10 49.19 50.21 51.03 51.26 52.16 53.07 52.92 52.91 55.22 56.40 55.65 55.56 58.06 54.49 53.86 51.90 48.31 50.29 47.44 46.37 49.84 51.34 50.22 49.16 47.63 46.60 48.88 51.45 47.67 47.38 47.99 49.37 51.28 51.16 51.33 52.31 53.18 54.77 57.54
53.68 52.70 52.29 51.98 51.70 51.10 49.85 51.99 53.52 52.53 48.07 53.52 53.38 55.02 57.14 56.73 51.59 53.44 55.72 50.64 50.22 47.55 51.03 49.77 45.47 50.71 52.45 51.81 49.70 48.76 47.27 47.09 49.71 51.11 50.16 48.50 47.81 50.62 51.53 51.50 51.94 52.19 52.99 54.21 56.40
52.99 52.47 52.22 51.50 50.91 48.51 49.11 50.23 55.23 55.13 48.06 51.61 54.65 53.11 53.99 55.42 52.00 53.33 55.61 52.68 50.73 48.91 49.77 48.32 50.03 53.19 51.30 49.96 48.43 47.69 47.06 47.46 47.28 50.06 51.07 48.58 46.65 48.93 51.50 52.39 52.78 52.68 53.26 54.45 55.78
52.77 52.52 51.74 50.66 47.07 53.16 53.24 53.74 55.77 55.66 44.05 47.14 48.12 50.67 53.19 53.41 48.61 55.31 57.19 53.82 50.89 47.76 50.00 49.95 53.21 51.05 49.86 49.04 49.47 45.82 50.60 49.31 47.75 45.54 42.37 49.73 41.28 47.84 50.37 50.91 51.87 52.17 52.91 53.44 55.28
52.48 52.21 50.99 50.17 48.86 50.83 53.03 54.85 55.80 50.25 33.80 48.28 46.60 53.09 50.89 48.95 49.23 49.52 56.01 53.59 48.39 48.63 48.84 47.39 49.32 47.76 47.24 48.49 51.38 47.52 50.76 47.77 47.73 45.70 45.40 45.52 43.26 46.62 50.44 48.70 51.07 51.38 52.57 53.73 55.27
52.53 51.65 49.87 48.38 48.73 49.57 51.76 52.83 51.45 39.37 33.44 43.81 45.99 44.79 44.97 47.62 48.38 48.39 48.78 53.21 52.97 48.88 49.95 48.48 52.63 50.00 48.81 50.33 50.12 50.55 47.78 46.70 46.80 45.23 38.99 44.13 44.31 44.82 47.69 48.90 50.38 51.72 52.30 52.95 54.28
52.48 51.49 50.75 52.30 48.61 50.81 52.18 48.79 36.03 33.44 46.02 43.21 43.05 44.03 44.50 44.43 45.05 45.20 45.06 45.23 44.18 40.38 42.03 46.44 47.54 50.30 50.25 46.17 48.54 47.11 44.42 38.36 37.75 37.48 36.94 46.13 44.26 46.38 48.58 49.63 50.10 50.15 51.29 52.61 54.37
52.06 51.28 50.90 52.01 52.31 52.25 49.34 40.77 31.58 40.88 43.65 44.90 44.06 44.35 41.57 44.69 43.76 44.60 43.85 43.48 46.80 46.20 43.14 41.95 39.87 47.31 49.67 46.25 44.94 44.90 44.56 39.03 32.19 35.34 39.60 45.69 41.17 45.28 49.48 50.40 51.54 51.22 51.77 52.99 53.20
51.70 50.04 50.15 50.61 52.35 52.48 43.14 32.31 35.88 40.39 44.49 43.21 42.23 39.39 41.94 44.18 42.83 43.42 43.19 43.46 45.98 47.19 40.58 40.93 40.40 45.83 46.82 48.98 47.57 44.24 41.52 46.36 39.50 40.48 35.22 39.47 44.44 47.22 48.30 49.10 49.38 49.59 50.40 50.95 51.98
48.42 46.74 46.65 52.39 52.36 48.58 39.30 35.43 39.85 44.65 42.46 41.06 37.42 40.77 38.39 41.27 41.28 41.92 42.15 44.46 44.19 45.77 47.02 43.22 37.53 43.92 44.13 43.93 46.32 45.16 45.44 38.90 38.64 29.37 29.17 36.93 39.45 39.65 43.66 46.42 47.96 48.36 49.24 49.95 50.69
45.47 41.49 45.17 49.88 50.09 43.20 33.65 35.71 40.59 43.71 42.78 39.94 39.83 38.79 39.51 39.86 40.13 39.91 40.65 43.01 43.77 44.27 46.17 44.41 42.02 40.61 42.81 40.90 40.73 40.95 40.15 40.42 41.27 38.69 31.75 30.94 35.88 43.98 44.06 46.33 46.71 47.64 48.61 49.16 50.07
40.64 32.85 44.82 47.97 34.96 33.21 35.12 38.91 41.71 42.50 44.42 41.18 41.14 39.74 38.00 39.12 37.47 37.67 38.54 40.80 44.25 45.53 41.82 44.54 41.11 36.56 39.33 43.82 44.74 43.84 41.90 41.60 35.67 33.20 36.20 35.44 35.76 46.10 45.15 45.68 46.66 46.78 47.24 48.40 49.08
36.88 34.48 44.82 43.11 31.16 32.67 37.79 38.03 40.29 40.47 40.68 40.46 39.88 42.01 42.80 39.46 35.71 38.69 39.04 41.61 42.51 42.52 41.80 42.98 37.83 32.88 35.59 40.14 42.83 39.71 40.34 40.41 40.23 39.14 34.36 32.02 34.82 45.01 44.80 44.82 45.96 45.56 47.03 47.96 48.03
40.46 32.49 38.56 38.34 34.65 34.47 35.48 36.00 36.03 41.69 40.23 41.65 40.29 42.04 39.65 38.15 40.28 37.16 38.39 41.26 42.78 42.14 41.26 42.87 37.62 34.70 30.18 30.56 33.72 32.65 33.73 35.43 34.44 31.56 32.63 33.84 35.88 39.32 41.01 41.51 43.52 45.05 46.54 47.18 47.88
41.89 35.17 38.92 31.80 33.94 34.59 35.38 33.50 34.20 35.29 39.68 40.65 36.96 38.34 37.81 34.34 36.68 36.65 39.58 40.75 42.47 42.54 41.68 41.49 34.54 37.11 37.73 37.84 35.99 34.91 35.02 35.78 33.42 34.15 30.26 33.91 33.70 38.54 40.72 41.66 43.16 44.83 45.57 45.52 45.79
35.32 36.15 39.56 38.19 36.67 33.24 32.81 33.38 30.97 33.80 34.31 35.27 35.30 38.45 39.26 35.71 37.05 35.80 38.90 40.08 39.37 42.07 40.54 41.36 34.30 36.39 33.81 37.44 36.81 33.52 36.12 36.32 36.36 36.30 35.44 35.78 35.42 41.74 43.56 44.36 43.67 44.18 44.55 44.28 45.10
44.08 43.64 40.55 35.39 34.09 31.39 31.12 32.95 32.93 34.62 36.24 36.25 35.20 34.44 36.61 38.27 40.63 41.34 41.74 42.30 42.59 39.90 39.05 37.87 36.09 33.76 29.32 35.91 35.10 30.08 35.24 36.33 37.13 38.66 37.18 32.90 38.69 42.93 41.88 42.08 43.09 43.72 44.73 44.52 45.00
MSLP
1018.89 1018.94 1019.10 1019.09 1019.01 1019.07 1019.06 1018.89 1018.86 1018.51 1018.29 1017.84 1017.30 1016.56 1015.85 1015.40 1014.12 1011.97 1011.35 1011.81 1011.65 1011.66 1011.53 1009.53 1007.76 1007.09 1006.56 1005.89 1005.41 1004.88 1003.33 1001.13 1000.03 999.52 999.85 1000.57 1001.03 1001.01 1000.75 1000.92 1002.25 1003.35 1003.95 1004.52 1006.96
1018.73 1018.70 1018.75 1018.85 1018.74 1018.93 1018.97 1018.66 1018.80 1018.53 1018.34 1017.85 1017.51 1016.74 1015.92 1015.34 1013.80 1011.59 1011.74 1011.52 1011.69 1011.61 1010.40 1008.94 1007.70 1007.11 1005.83 1005.14 1004.62 1004.30 1002.59 1001.02 1000.93 1000.86 1001.04 1001.33 1001.18 1000.73 1001.52 1001.25 1002.42 1003.66 1005.29 1006.27 1007.48
1018.45 1018.55 1018.40 1018.46 1018.54 1018.68 1018.92 1018.80 1018.72 1018.39 1018.15 1018.05 1017.55 1016.90 1015.89 1015.22 1012.73 1010.03 1011.29 1011.72 1011.74 1011.44 1010.02 1009.10 1008.31 1007.15 1005.91 1004.67 1004.12 1003.80 1002.84 1001.74 1001.92 1002.62 1002.38 1001.72 1001.32 1000.98 1001.64 1001.35 1002.12 1003.46 1005.01 1006.39 1007.08
1017.81 1018.48 1018.36 1018.18 1018.28 1018.33 1018.63 1018.70 1018.78 1018.50 1018.11 1017.97 1017.50 1016.81 1015.83 1014.82 1011.52 1010.28 1011.39 1011.54 1011.43 1011.16 1009.67 1008.46 1007.75 1006.84 1005.54 1004.60 1004.11 1004.02 1003.29 1002.95 1002.90 1002.64 1003.01 1002.29 1001.71 1001.33 1001.63 1001.59 1001.74 1002.54 1004.09 1005.95 1006.53
1017.71 1017.97 1018.14 1018.06 1017.97 1018.07 1018.37 1018.58 1018.53 1018.45 1018.25 1018.07 1017.65 1017.02 1015.82 1013.04 1010.74 1010.68 1011.18 1011.16 1010.58 1010.20 1009.23 1008.44 1007.71 1006.87 1005.79 1004.72 1004.59 1004.28 1003.56 1003.11 1003.33 1003.21 1003.31 1002.94 1002.34 1002.02 1001.75 1001.88 1002.53 1002.66 1003.96 1005.35 1006.13
1017.53 1017.58 1017.84 1017.77 1017.80 1017.81 1018.01 1018.44 1018.43 1018.54 1018.27 1018.13 1017.70 1017.53 1015.54 1012.71 1009.91 1010.20 1010.46 1010.45 1009.86 1009.50 1008.96 1008.45 1007.75 1007.58 1006.94 1005.70 1005.13 1004.27 1004.19 1003.57 1003.36 1003.04 1003.02 1003.04 1002.47 1002.22 1001.92 1002.35 1002.74 1003.05 1003.87 1004.77 1005.46
1016.89 1017.25 1017.43 1017.54 1017.59 1017.58 1017.60 1018.14 1018.34 1018.48 1018.21 1018.05 1017.95 1017.08 1015.16 1011.43 1009.94 1009.43 1010.00 1010.11 1009.65 1009.58 1008.96 1008.38 1008.50 1008.12 1006.89 1005.88 1005.31 1005.45 1004.54 1003.25 1002.52 1002.43 1002.54 1002.69 1002.40 1001.68 1001.66 1001.78 1002.57 1002.95 1003.47 1003.95 1004.79
1016.32 1016.80 1017.00 1017.28 1017.43 1017.32 1017.43 1017.83 1018.16 1018.14 1018.14 1017.83 1017.85 1016.77 1013.77 1011.01 1010.16 1009.52 1009.56 1009.35 1009.17 1009.51 1009.18 1008.72 1008.73 1008.30 1007.41 1006.42 1005.97 1005.08 1004.15 1002.59 1000.98 1001.36 1001.70 1002.39 1001.18 1001.00 1001.20 1001.79 1002.06 1002.52 1002.92 1003.42 1004.17
1015.89 1016.09 1016.56 1016.91 1017.04 1017.28 1017.59 1017.79 1017.87 1018.02 1017.97 1017.70 1017.11 1015.67 1011.88 1010.35 1009.69 1008.82 1008.80 1008.73 1008.38 1008.95 1009.10 1009.00 1008.78 1007.90 1006.75 1006.26 1005.06 1003.74 1002.78 1001.32 1000.61 1001.14 1001.66 1002.14 1001.26 1000.57 1000.31 1000.48 1001.16 1002.01 1002.35 1002.88 1003.70
1015.49 1015.78 1015.99 1016.31 1016.82 1017.31 1017.68 1017.75 1017.50 1017.68 1017.45 1016.51 1015.51 1014.94 1011.16 1009.05 1008.24 1008.30 1008.18 1008.52 1008.57 1008.67 1008.66 1008.60 1007.90 1006.96 1005.74 1004.97 1003.40 1002.13 1001.41 1001.01 1000.83 1000.54 1001.49 1001.19 1000.84 1000.78 1000.81 1000.82 1001.04 1001.41 1001.51 1002.11 1003.11
1014.98 1015.41 1015.71 1016.46 1016.94 1017.49 1017.76 1017.58 1017.03 1016.05 1015.38 1012.58 1011.24 1010.38 1008.58 1008.60 1008.62 1008.05 1008.09 1008.47 1008.32 1008.08 1007.24 1007.24 1006.53 1004.73 1003.74 1003.53 1003.43 1002.93 1002.47 1001.76 1001.21 1000.68 1001.09 1001.24 1000.70 1000.23 1000.22 1000.56 1001.11 1001.07 1001.25 1001.28 1002.26
1015.17 1015.61 1016.15 1016.61 1016.93 1017.20 1017.35 1015.66 1014.24 1014.88 1012.85 1011.47 1010.38 1009.37 1008.70 1008.65 1008.07 1007.36 1007.75 1007.83 1007.72 1006.72 1006.23 1005.67 1005.00 1004.26 1003.48 1003.32 1003.67 1003.42 1002.77 1002.02 1001.63 1001.25 1000.92 1000.61 1000.02 999.91 999.64 999.54 999.72 1000.46 1000.65 1001.08 1001.85
1015.29 1015.74 1016.31 1016.62 1016.96 1017.14 1016.33 1015.06 1014.61 1014.44 1012.56 1009.44 1008.32 1008.01 1008.13 1008.47 1007.40 1006.92 1006.94 1007.10 1006.48 1006.18 1005.46 1004.32 1003.81 1003.44 1003.43 1003.47 1003.36 1003.40 1002.86 1002.19 1001.67 1001.20 1000.62 1000.59 999.27 998.92 998.53 998.47 998.62 999.02 1000.10 1000.46 1001.27
1015.46 1015.71 1016.31 1016.62 1017.20 1015.70 1015.01 1014.69 1014.73 1014.75 1012.08 1007.85 1007.70 1007.32 1007.73 1007.87 1007.22 1006.55 1006.53 1006.84 1006.35 1005.60 1005.41 1004.33 1003.70 1003.43 1003.45 1003.07 1003.48 1002.48 1002.79 1002.48 1002.12 1002.12 1000.43 1000.02 997.36 997.39 996.86 996.57 997.23 998.30 999.11 999.87 1000.57
1015.41 1015.70 1015.81 1016.42 1016.27 1015.45 1015.03 1014.88 1015.01 1015.22 1011.35 1007.00 1007.37 1007.72 1007.69 1007.45 1006.15 1005.92 1006.27 1006.75 1006.14 1005.35 1005.27 1003.33 1003.57 1003.72 1003.11 1002.80 1003.10 1002.84 1003.43 1003.52 1002.71 1002.07 1001.35 1000.20 999.43 996.27 996.44 996.25 996.18 997.54 998.65 999.80 1000.34
1015.29 1015.61 1016.07 1016.29 1016.37 1016.02 1015.88 1015.83 1015.60 1014.72 1009.24 1006.69 1006.85 1007.07 1007.07 1007.30 1006.21 1006.10 1006.53 1007.10 1006.57 1006.20 1004.50 1003.68 1003.64 1003.66 1003.25 1003.01 1003.32 1003.88 1003.99 1004.20 1003.52 1002.71 1000.88 999.71 999.41 994.58 996.58 996.54 996.66 997.49 998.83 999.94 1000.56
1015.17 1015.45 1015.91 1015.80 1015.69 1016.10 1016.36 1016.26 1015.65 1012.22 1007.19 1006.04 1005.98 1006.17 1006.03 1005.77 1006.02 1005.69 1005.80 1006.33 1005.90 1005.33 1004.11 1003.45 1002.99 1003.22 1003.75 1003.54 1003.79 1004.25 1004.27 1003.31 1002.43 1001.80 999.34 999.14 998.11 996.82 998.03 998.57 999.20 999.66 1000.16 1001.05 1001.93
1014.90 1015.44 1015.64 1015.34 1015.57 1015.66 1016.31 1015.97 1013.49 1009.54 1006.78 1006.77 1006.35 1005.97 1005.66 1005.31 1005.37 1005.21 1005.13 1004.99 1005.17 1004.22 1003.47 1002.24 1001.95 1001.99 1002.63 1003.24 1003.12 1003.64 1003.62 1002.88 1001.87 1001.12 999.72 998.78 997.71 997.87 999.60 1000.44 1000.81 1001.70 1002.28 1002.47 1003.49
1014.70 1015.27 1015.37 1015.46 1015.64 1015.40 1015.41 1014.28 1010.70 1008.83 1007.11 1006.76 1006.98 1006.25 1005.38 1005.34 1005.33 1005.06 1004.88 1004.30 1003.91 1003.76 1004.09 1002.54 1002.21 1002.75 1003.28 1003.32 1003.90 1003.41 1003.10 1003.50 1003.48 1003.38 1002.84 1000.63 999.69 999.38 1000.46 1001.84 1002.75 1003.17 1003.74 1004.14 1004.84
1014.51 1015.15 1015.26 1015.12 1015.47 1015.30 1014.71 1012.82 1010.59 1009.03 1008.59 1008.12 1007.08 1006.58 1005.93 1005.26 1005.38 1005.36 1004.79 1004.46 1004.42 1004.59 1004.96 1004.38 1003.52 1003.44 1003.89 1004.73 1004.47 1004.37 1004.50 1004.10 1005.01 1004.67 1003.29 1001.49 1001.03 1001.08 1002.30 1002.65 1004.05 1004.55 1004.98 1005.52 1006.13
1014.70 1015.29 1015.67 1015.38 1015.59 1015.11 1014.01 1012.14 1010.85 1009.83 1009.56 1008.90 1007.67 1007.15 1007.09 1006.44 1006.68 1005.99 1005.44 1006.23 1006.46 1005.73 1006.03 1005.66 1005.06 1004.34 1004.75 1004.88 1004.38 1004.91 1004.99 1005.27 1004.79 1005.15 1004.27 1003.21 1002.93 1004.06 1004.58 1004.66 1004.80 1005.50 1005.90 1006.21 1006.57
1015.37 1015.79 1015.97 1015.65 1016.13 1015.54 1013.94 1012.45 1011.53 1010.19 1010.07 1009.70 1009.19 1008.48 1007.98 1007.84 1007.69 1007.24 1006.76 1007.25 1007.77 1007.18 1006.37 1006.53 1006.36 1005.54 1005.01 1005.07 1005.94 1005.76 1005.51 1005.69 1005.83 1005.71 1005.67 1005.40 1004.41 1005.39 1006.04 1006.37 1006.45 1006.44 1006.76 1006.79 1006.80
1015.26 1016.15 1016.04 1015.63 1015.47 1015.26 1014.10 1013.13 1012.37 1011.17 1010.25 1009.78 1009.12 1008.97 1008.71 1008.62 1008.40 1007.93 1008.00 1009.11 1008.99 1008.40 1007.89 1008.20 1008.13 1007.07 1006.26 1006.70 1007.12 1007.09 1007.97 1008.30 1007.74 1007.43 1006.76 1006.42 1005.93 1006.49 1007.04 1007.06 1007.20 1007.50 1007.57 1007.18 1007.24
1014.72 1015.58 1015.82 1015.93 1015.76 1015.37 1014.43 1013.46 1012.90 1012.12 1010.95 1010.48 1010.12 1009.39 1009.16 1008.62 1008.34 1008.01 1008.41 1009.17 1009.38 1009.34 1009.60 1009.75 1009.47 1009.03 1008.42 1009.52 1010.27 1009.92 1010.25 1010.41 1010.26 1009.41 1008.44 1007.45 1007.30 1007.66 1007.88 1007.85 1007.62 1007.53 1007.31 1007.36 1007.32
1014.35 1014.36 1013.86 1015.12 1015.07 1015.24 1015.20 1014.28 1013.44 1012.89 1012.13 1011.66 1011.41 1010.41 1009.53 1009.20 1008.30 1008.17 1008.37 1008.75 1009.16 1009.78 1009.73 1009.64 1009.29 1009.24 1009.23 1009.72 1010.51 1010.41 1009.96 1009.70 1010.21 1009.90 1009.51 1008.27 1008.01 1007.14 1007.13 1006.94 1006.87 1006.79 1006.75 1006.93 1006.94
1014.33 1014.23 1014.35 1013.79 1014.10 1014.84 1015.02 1014.47 1013.76 1013.61 1013.70 1012.54 1011.92 1010.60 1010.19 1009.60 1009.20 1008.38 1008.57 1008.46 1008.35 1008.48 1009.19 1009.29 1009.03 1009.30 1008.79 1009.13 1008.96 1009.20 1008.85 1008.64 1008.22 1007.90 1008.19 1007.94 1006.86 1006.50 1006.24 1006.17 1005.94 1005.96 1006.24 1006.56 1006.91
1014.28 1014.17 1013.84 1013.33 1013.65 1014.01 1014.15 1014.09 1013.89 1013.86 1013.73 1013.50 1013.38 1012.64 1011.31 1010.91 1010.58 1010.34 1010.21 1009.71 1009.14 1008.52 1008.44 1008.83 1008.99 1008.91 1008.49 1008.16 1007.83 1007.50 1006.19 1006.49 1006.04 1006.11 1006.21 1006.01 1005.56 1005.33 1004.88 1004.81 1005.20 1005.43 1005.74 1006.14 1006.67
Wind_Speed
9 8 7 6 5 3 6 7 8 9 11 13 16 18 20 18 24 18 14 5 7 10 12 17 13 9 9 14 9 10 10 14 17 11 9 10 10 10 14 7 9 6 11 11 22
10 9 8 7 7 5 7 5 7 10 12 13 17 20 21 18 19 19 4 5 4 8 12 12 12 10 12 9 6 11 13 17 11 10 8 4 11 11 11 12 10 9 6 17 19
11 10 10 9 9 8 8 5 5 7 9 12 14 18 22 22 18 5 4 1 6 10 12 11 12 13 14 11 12 13 16 17 7 6 8 14 8 15 13 17 15 16 14 17 19
11 12 11 10 10 9 9 6 7 8 8 10 14 18 23 11 9 7 4 3 7 12 12 10 10 13 12 14 12 11 15 13 12 2 10 12 13 10 13 17 10 16 19 17 20
11 12 12 11 10 10 9 7 7 8 8 10 13 17 14 11 19 8 5 9 11 9 11 9 11 10 13 8 11 15 17 11 9 10 11 13 12 12 14 13 3 5 16 19 18
12 11 12 12 11 10 8 8 8 8 8 9 11 18 10 19 3 1 4 8 12 11 11 8 7 8 12 13 13 12 10 13 14 14 14 14 15 17 14 14 8 13 16 18 18
11 11 11 12 11 11 9 8 7 8 9 10 10 10 15 25 16 15 10 13 11 12 14 7 7 9 8 12 7 13 16 16 18 18 17 12 18 21 17 17 15 15 16 18 18
12 11 11 12 11 10 9 8 8 8 9 10 9 10 13 16 16 15 15 17 17 17 14 11 7 12 15 13 13 16 17 16 11 5 14 13 17 17 21 21 18 19 17 17 19
12 12 12 12 11 10 7 5 7 10 10 7 8 10 14 4 12 12 17 14 7 11 11 5 9 14 12 12 15 16 16 18 11 14 6 12 13 16 10 22 18 19 19 17 17
12 13 11 11 9 7 4 2 5 5 8 10 9 9 15 21 11 6 7 9 9 10 10 12 9 11 13 14 15 18 15 14 16 8 11 15 16 16 8 12 15 18 19 18 17
11 9 12 13 11 6 2 3 6 10 17 14 15 10 5 1 2 10 11 12 14 15 15 16 12 18 19 18 17 18 16 19 19 18 5 14 19 17 15 17 16 17 19 18 18
15 15 13 11 10 7 5 9 4 6 11 24 25 23 25 3 7 13 13 13 15 18 18 12 19 20 17 14 12 17 18 19 20 20 18 17 21 19 18 20 20 20 19 18 18
16 16 13 11 8 4 9 9 5 6 10 16 23 26 23 18 24 22 19 19 18 19 20 22 16 17 14 16 19 19 21 19 21 20 21 18 26 26 22 27 23 21 21 19 19
16 13 10 7 2 4 10 7 4 4 8 9 8 6 12 15 14 23 25 20 22 24 22 21 24 24 23 22 18 22 18 19 16 16 16 18 20 19 16 12 24 22 20 20 19
14 13 13 3 1 4 7 3 4 1 7 10 9 6 6 15 5 5 15 21 24 22 12 18 11 15 21 25 21 22 12 13 15 16 19 20 16 18 17 14 19 15 15 18 17
14 13 12 4 1 5 6 3 1 4 10 8 8 10 11 15 9 7 6 13 14 24 22 23 21 11 13 14 15 16 10 14 13 13 18 17 19 26 9 6 8 7 10 9 11
15 15 8 6 3 6 2 2 2 6 3 9 5 6 11 7 11 9 10 15 12 10 19 24 26 24 17 15 12 16 14 11 13 12 18 11 16 16 11 8 9 6 6 4 5
17 15 5 4 6 11 4 2 7 12 20 5 0 5 9 9 10 12 12 15 18 17 11 11 13 20 20 20 16 15 19 11 11 14 15 14 20 3 10 9 8 6 4 1 3
15 5 3 5 6 7 4 5 9 10 13 7 3 6 11 12 6 11 17 15 14 12 10 7 8 7 4 12 18 14 18 18 16 15 9 9 18 2 10 10 7 8 5 5 2
4 4 3 7 6 8 3 9 15 13 3 3 12 6 12 15 10 12 11 2 8 5 8 6 10 7 4 4 11 18 4 10 7 7 13 14 18 4 7 5 6 7 7 5 2
3 3 4 5 2 4 7 10 17 4 5 8 12 13 10 10 9 14 5 7 0 3 7 12 13 8 4 11 16 12 17 11 8 14 9 12 5 6 9 7 8 8 6 6 4
3 1 2 2 4 2 5 6 10 15 12 9 7 8 9 8 10 7 10 2 3 5 7 3 6 12 18 2 6 11 13 18 12 13 13 13 15 9 6 5 7 7 6 8 5
4 0 1 2 3 3 8 10 8 12 14 13 14 13 14 15 14 13 11 3 2 3 2 2 4 9 16 6 10 9 3 10 9 8 16 13 7 4 1 3 3 6 8 7 3
4 3 1 1 2 3 4 6 7 11 13 12 10 16 13 17 15 8 12 11 5 6 2 3 4 6 10 2 1 1 3 2 4 5 8 12 13 7 10 12 15 14 11 11 8
2 4 4 3 3 6 3 4 6 8 10 10 5 15 14 16 17 18 16 13 13 9 8 7 13 14 15 12 12 12 15 14 13 12 8 12 12 18 17 14 17 15 12 12 11
4 4 3 2 9 7 2 0 2 7 5 4 11 13 20 22 21 18 18 19 19 17 16 13 11 11 16 16 16 16 19 16 18 19 18 20 23 19 18 14 15 14 12 13 10
1 2 3 5 8 7 11 10 10 7 6 9 6 8 13 11 13 11 5 12 15 12 17 18 11 13 15 17 16 15 21 20 23 21 20 18 21 19 15 12 13 12 12 9 9
Wind_Direction
229 231 239 242 241 279 290 301 328 337 331 333 332 327 323 328 311 300 269 50 351 325 310 276 271 261 249 254 236 255 257 259 267 262 266 127 228 202 261 171 166 191 359 109 143
230 230 230 236 247 276 281 313 328 333 333 336 331 327 319 329 308 288 90 67 309 310 310 327 309 311 272 244 229 235 251 263 13 350 303 298 247 191 229 217 192 177 125 119 156
233 232 223 228 237 245 275 294 298 321 331 327 328 323 315 320 295 92 92 325 294 286 292 295 285 274 273 252 247 254 251 288 324 286 284 280 221 261 213 230 197 198 163 160 170
219 235 231 225 239 235 246 251 285 307 315 323 327 323 313 297 296 88 136 249 271 283 288 294 285 271 261 263 234 264 259 275 277 216 263 256 267 217 237 247 210 208 162 173 179
228 229 233 233 236 240 243 249 264 282 301 324 327 320 319 289 267 113 160 207 258 274 286 294 284 291 265 280 282 255 262 267 264 256 256 266 262 255 234 245 224 257 153 181 189
225 227 232 232 235 244 234 238 264 287 306 317 325 314 289 281 278 260 262 272 273 276 278 266 293 324 287 275 268 315 290 280 264 257 248 246 247 244 245 238 214 229 187 193 197
220 225 230 233 232 231 222 229 251 280 293 302 311 301 280 252 296 290 254 267 275 278 276 260 283 273 324 267 276 277 271 262 246 237 241 241 246 245 231 221 220 213 203 201 199
215 220 223 231 233 226 211 219 249 262 281 284 284 282 264 269 284 272 263 260 260 256 249 269 254 270 267 277 268 256 256 268 252 209 225 238 253 237 223 241 215 217 217 211 203
219 214 218 223 218 202 198 230 265 270 257 262 246 228 267 212 239 245 231 238 224 223 227 238 238 246 252 243 257 228 260 251 219 178 245 206 256 248 282 202 218 234 223 216 212
222 220 212 204 175 146 153 260 284 251 224 220 249 273 234 250 227 225 194 228 211 196 200 214 219 232 219 234 247 256 242 221 251 214 211 238 241 255 256 265 223 239 241 223 209
241 212 145 132 125 134 143 208 225 211 217 219 194 232 184 185 212 219 216 214 222 208 214 196 219 224 232 231 250 274 286 286 286 286 254 265 264 259 257 211 232 237 238 228 213
128 130 133 140 151 160 255 236 310 348 285 227 254 240 262 232 272 219 183 202 204 216 214 209 233 249 257 262 274 265 263 261 269 273 272 262 259 260 256 248 232 230 231 231 214
138 137 142 149 156 158 209 220 326 303 261 262 234 237 236 241 246 247 200 223 229 229 241 241 239 237 253 252 242 251 257 265 277 289 286 268 267 258 247 246 241 222 236 226 222
148 148 140 140 148 182 218 203 244 330 272 235 200 248 220 229 269 240 248 218 235 242 249 262 254 248 252 247 255 253 250 262 256 269 269 277 285 276 281 247 217 227 215 231 213
156 153 143 202 16 203 39 60 8 302 274 107 132 105 158 190 8 124 218 233 237 225 217 234 226 243 247 251 246 259 289 287 266 263 275 260 265 268 263 249 238 198 226 222 224
160 151 136 121 30 8 31 7 313 226 239 161 137 181 175 214 242 100 175 241 237 246 246 243 264 245 260 263 253 275 259 246 253 256 256 258 252 276 299 334 312 189 165 218 228
166 159 180 158 176 121 66 86 148 225 138 151 197 178 209 192 223 216 180 196 216 199 227 237 244 244 227 254 230 240 220 242 225 214 245 260 247 248 139 102 68 99 153 174 222
169 161 207 229 165 148 154 127 210 225 249 117 313 230 240 219 227 211 227 225 220 258 287 260 223 217 212 217 236 217 223 234 251 255 275 293 240 249 78 70 78 60 24 99 118
156 166 163 199 189 199 154 211 213 237 292 306 203 254 234 227 253 202 224 246 238 210 239 299 249 32 30 237 226 249 217 252 282 284 287 264 285 210 109 97 67 63 68 70 106
148 148 178 151 184 202 188 233 235 251 312 245 236 231 261 237 214 230 234 121 254 252 277 282 276 224 102 237 248 248 7 234 200 235 234 252 257 329 47 90 120 93 89 100 135
69 167 357 119 55 206 211 226 234 185 271 243 239 246 240 263 243 265 254 67 285 236 269 271 249 246 190 218 242 202 238 242 271 228 274 278 282 36 63 41 74 86 84 78 78
51 187 8 247 153 207 226 222 262 249 211 239 256 263 258 253 269 272 271 304 305 295 256 340 303 258 255 37 300 291 292 231 236 242 246 253 269 95 77 74 35 37 28 3 22
124 254 47 55 178 218 207 227 248 231 229 222 232 229 229 243 246 239 239 87 303 261 301 103 250 265 246 249 218 228 20 326 315 296 249 247 236 97 98 264 322 304 303 304 348
156 170 226 101 120 304 256 215 226 249 248 247 257 242 229 235 235 248 226 180 201 150 122 211 217 261 273 103 265 339 357 21 352 279 286 265 302 245 275 307 301 289 276 271 275
200 222 174 185 205 234 268 312 295 225 241 220 260 247 240 246 233 226 239 202 205 177 209 230 245 248 243 217 210 236 243 225 228 235 230 273 268 272 279 269 268 274 276 264 264
156 180 188 278 176 206 287 267 231 302 5 302 233 225 226 240 254 253 242 233 230 213 213 215 243 254 250 233 227 238 249 249 247 243 233 252 259 264 270 268 267 269 264 266 265
190 161 267 189 208 219 237 243 250 296 251 231 294 323 280 255 300 313 242 259 245 262 235 219 232 241 249 246 238 239 247 248 253 250 242 244 260 275 262 236 237 263 273 262 247